Find Praetorian SDA-614

NORAD ID: 65577 Int'l Des: 2025-203 Owner: SDA Country: US operational
LEOCIRCULARPOLAR

Live Position

Loading 3D Globe...

About Praetorian SDA-614

Description loading...

Upcoming Passes

Passes for default location (London). Set your location on the main map for personalized predictions.

Altitude History

Loading altitude history...

Two-Line Element Set

1 65577U 25203N 26103.65769778 .00000063 00000-0 45442-4 0 9991
2 65577 81.2997 70.4198 0007623 15.6225 344.5166 13.84770199 29780
Epoch: Apr 13, 2026 • Age: 18 hours

Current Status

Altitude 958.2 km
Velocity 7.38 km/s
Sub-Earth Point 78.67°N, 133.77°E
Launch Date Sep 10, 2025
Age 0.5 years
Type other

Technical Details

Classification Payload
Mass 300.00 kg
Dry Mass 300.00 kg
Total Mass 300.00 kg
Length 1.00 m
Diameter 0.60 m
Span 2.00 m
Shape Box + panels
Manufacturer YORKSS
Bus Type S-Class
Phase Status In Orbit
Owner/State SDA/US

Most Searched